OAO 2

Last updated on Sun Jun 21 2026 00:02:14 GMT+0000 (Coordinated Universal Time)

1 03597U 68110A 26171.36582830 .00000147 00000+0 44650-4 0 9996 2 03597 34.9945 51.9301 0006143 296.6747 63.3315 14.47353113 33980
UTC large
Height (km)
Speed (km/s)
/
Latitude / Longitude
Inclination (degrees)
Orbital Period (minutes)
Azimuth
Elevation
Range (km)
Doppler Factor

Next 0 passes for location: London (51.5072 / 0.1276)

No passes found over London.
OAO 2